Year,Month,Day,Hour,Minute,Value (Times are PST for temperature in C)
2018,10,18,00,00,6.20
2018,10,18,00,01,6.20
2018,10,18,00,02,6.20
2018,10,18,00,03,6.20
2018,10,18,00,04,6.20
2018,10,18,00,05,6.20
2018,10,18,00,06,6.30
2018,10,18,00,07,6.40
2018,10,18,00,08,6.40
2018,10,18,00,09,6.40
2018,10,18,00,10,6.40
2018,10,18,00,11,6.40
2018,10,18,00,12,6.30
2018,10,18,00,13,6.30
2018,10,18,00,14,6.20
2018,10,18,00,15,6.20
2018,10,18,00,16,6.20
2018,10,18,00,17,6.20
2018,10,18,00,18,6.20
2018,10,18,00,19,6.20
2018,10,18,00,20,6.30
2018,10,18,00,21,6.30
2018,10,18,00,22,6.40
2018,10,18,00,23,6.50
2018,10,18,00,24,6.60
2018,10,18,00,25,6.60
2018,10,18,00,26,6.70
2018,10,18,00,27,6.70
2018,10,18,00,28,6.70
2018,10,18,00,29,6.70
2018,10,18,00,30,6.60
2018,10,18,00,31,6.60
2018,10,18,00,32,6.50
2018,10,18,00,33,6.40
2018,10,18,00,34,6.30
2018,10,18,00,35,6.20
2018,10,18,00,36,6.20
2018,10,18,00,37,6.20
2018,10,18,00,38,6.20
2018,10,18,00,39,6.20
2018,10,18,00,40,6.30
2018,10,18,00,41,6.30
2018,10,18,00,42,6.50
2018,10,18,00,43,6.50
2018,10,18,00,44,6.60
2018,10,18,00,45,6.60
2018,10,18,00,46,6.70
2018,10,18,00,47,6.80
2018,10,18,00,48,6.90
2018,10,18,00,49,7.00
2018,10,18,00,50,7.10
2018,10,18,00,51,7.10
2018,10,18,00,52,7.20
2018,10,18,00,53,7.20
2018,10,18,00,54,7.20
2018,10,18,00,55,7.20
2018,10,18,00,56,7.20
2018,10,18,00,57,7.20
2018,10,18,00,58,7.20
2018,10,18,00,59,7.10
2018,10,18,01,00,7.10
2018,10,18,01,01,7.00
2018,10,18,01,02,6.90
2018,10,18,01,03,6.90
2018,10,18,01,04,6.80
2018,10,18,01,05,6.80
2018,10,18,01,06,6.70
2018,10,18,01,07,6.70
2018,10,18,01,08,6.60
2018,10,18,01,09,6.60
2018,10,18,01,10,6.50
2018,10,18,01,11,6.50
2018,10,18,01,12,6.40
2018,10,18,01,13,6.30
2018,10,18,01,14,6.30
2018,10,18,01,15,6.30
2018,10,18,01,16,6.30
2018,10,18,01,17,6.20
2018,10,18,01,18,6.20
2018,10,18,01,19,6.20
2018,10,18,01,20,6.20
2018,10,18,01,21,6.20
2018,10,18,01,22,6.20
2018,10,18,01,23,6.10
2018,10,18,01,24,6.10
2018,10,18,01,25,6.10
2018,10,18,01,26,6.10
2018,10,18,01,27,6.10
2018,10,18,01,28,6.00
2018,10,18,01,29,6.00
2018,10,18,01,30,6.00
2018,10,18,01,31,6.00
2018,10,18,01,32,6.00
2018,10,18,01,33,5.90
2018,10,18,01,34,5.90
2018,10,18,01,35,5.90
2018,10,18,01,36,5.90
2018,10,18,01,37,5.90
2018,10,18,01,38,5.90
2018,10,18,01,39,5.90
2018,10,18,01,40,5.90
2018,10,18,01,41,5.90
2018,10,18,01,42,5.90
2018,10,18,01,43,5.90
2018,10,18,01,44,5.90
2018,10,18,01,45,5.90
2018,10,18,01,46,5.90
2018,10,18,01,47,5.90
2018,10,18,01,48,5.90
2018,10,18,01,49,5.90
2018,10,18,01,50,5.90
2018,10,18,01,51,5.90
2018,10,18,01,52,5.90
2018,10,18,01,53,5.90
2018,10,18,01,54,5.90
2018,10,18,01,55,5.90
2018,10,18,01,56,5.90
2018,10,18,01,57,5.90
2018,10,18,01,58,5.90
2018,10,18,01,59,5.90
2018,10,18,02,00,5.90
2018,10,18,02,01,5.90
2018,10,18,02,02,5.90
2018,10,18,02,03,5.80
2018,10,18,02,04,5.80
2018,10,18,02,05,5.80
2018,10,18,02,06,5.80
2018,10,18,02,07,5.70
2018,10,18,02,08,5.70
2018,10,18,02,09,5.70
2018,10,18,02,10,5.60
2018,10,18,02,11,5.60
2018,10,18,02,12,5.60
2018,10,18,02,13,5.50
2018,10,18,02,14,5.50
2018,10,18,02,15,5.40
2018,10,18,02,16,5.40
2018,10,18,02,17,5.40
2018,10,18,02,18,5.40
2018,10,18,02,19,5.40
2018,10,18,02,20,5.40
2018,10,18,02,21,5.50
2018,10,18,02,22,5.60
2018,10,18,02,23,5.70
2018,10,18,02,24,5.80
2018,10,18,02,25,5.80
2018,10,18,02,26,5.80
2018,10,18,02,27,5.80
2018,10,18,02,28,5.90
2018,10,18,02,29,5.90
2018,10,18,02,30,5.90
2018,10,18,02,31,5.90
2018,10,18,02,32,5.90
2018,10,18,02,33,5.90
2018,10,18,02,34,5.80
2018,10,18,02,35,5.80
2018,10,18,02,36,5.80
2018,10,18,02,37,5.70
2018,10,18,02,38,5.70
2018,10,18,02,39,5.60
2018,10,18,02,40,5.60
2018,10,18,02,41,5.60
2018,10,18,02,42,5.50
2018,10,18,02,43,5.50
2018,10,18,02,44,5.40
2018,10,18,02,45,5.40
2018,10,18,02,46,5.40
2018,10,18,02,47,5.40
2018,10,18,02,48,5.40
2018,10,18,02,49,5.30
2018,10,18,02,50,5.30
2018,10,18,02,51,5.30
2018,10,18,02,52,5.30
2018,10,18,02,53,5.30
2018,10,18,02,54,5.40
2018,10,18,02,55,5.40
2018,10,18,02,56,5.50
2018,10,18,02,57,5.60
2018,10,18,02,58,5.60
2018,10,18,02,59,5.60
2018,10,18,03,00,5.60
2018,10,18,03,01,5.60
2018,10,18,03,02,5.60
2018,10,18,03,03,5.60
2018,10,18,03,04,5.60
2018,10,18,03,05,5.70
2018,10,18,03,06,5.70
2018,10,18,03,07,5.60
2018,10,18,03,08,5.60
2018,10,18,03,09,5.60
2018,10,18,03,10,5.50
2018,10,18,03,11,5.50
2018,10,18,03,12,5.50
2018,10,18,03,13,5.40
2018,10,18,03,14,5.40
2018,10,18,03,15,5.40
2018,10,18,03,16,5.40
2018,10,18,03,17,5.30
2018,10,18,03,18,5.30
2018,10,18,03,19,5.30
2018,10,18,03,20,5.30
2018,10,18,03,21,5.30
2018,10,18,03,22,5.30
2018,10,18,03,23,5.30
2018,10,18,03,24,5.30
2018,10,18,03,25,5.30
2018,10,18,03,26,5.30
2018,10,18,03,27,5.30
2018,10,18,03,28,5.30
2018,10,18,03,29,5.30
2018,10,18,03,30,5.30
2018,10,18,03,31,5.30
2018,10,18,03,32,5.30
2018,10,18,03,33,5.30
2018,10,18,03,34,5.30
2018,10,18,03,35,5.30
2018,10,18,03,36,5.30
2018,10,18,03,37,5.30
2018,10,18,03,38,5.30
2018,10,18,03,39,5.30
2018,10,18,03,40,5.30
2018,10,18,03,41,5.30
2018,10,18,03,42,5.30
2018,10,18,03,43,5.30
2018,10,18,03,44,5.40
2018,10,18,03,45,5.50
2018,10,18,03,46,5.60
2018,10,18,03,47,5.60
2018,10,18,03,48,5.60
2018,10,18,03,49,5.60
2018,10,18,03,50,5.60
2018,10,18,03,51,5.60
2018,10,18,03,52,5.50
2018,10,18,03,53,5.50
2018,10,18,03,54,5.50
2018,10,18,03,55,5.40
2018,10,18,03,56,5.40
2018,10,18,03,57,5.40
2018,10,18,03,58,5.40
2018,10,18,03,59,5.40
2018,10,18,04,00,5.40
2018,10,18,04,01,5.40
2018,10,18,04,02,5.40
2018,10,18,04,03,5.30
2018,10,18,04,04,5.30
2018,10,18,04,05,5.30
2018,10,18,04,06,5.30
2018,10,18,04,07,5.20
2018,10,18,04,08,5.20
2018,10,18,04,09,5.20
2018,10,18,04,10,5.10
2018,10,18,04,11,5.10
2018,10,18,04,12,5.10
2018,10,18,04,13,5.00
2018,10,18,04,14,5.00
2018,10,18,04,15,5.00
2018,10,18,04,16,4.90
2018,10,18,04,17,4.90
2018,10,18,04,18,4.90
2018,10,18,04,19,4.90
2018,10,18,04,20,5.00
2018,10,18,04,21,5.00
2018,10,18,04,22,5.10
2018,10,18,04,23,5.20
2018,10,18,04,24,5.30
2018,10,18,04,25,5.40
2018,10,18,04,26,5.50
2018,10,18,04,27,5.50
2018,10,18,04,28,5.60
2018,10,18,04,29,5.60
2018,10,18,04,30,5.60
2018,10,18,04,31,5.60
2018,10,18,04,32,5.50
2018,10,18,04,33,5.50
2018,10,18,04,34,5.50
2018,10,18,04,35,5.40
2018,10,18,04,36,5.40
2018,10,18,04,37,5.40
2018,10,18,04,38,5.30
2018,10,18,04,39,5.30
2018,10,18,04,40,5.30
2018,10,18,04,41,5.20
2018,10,18,04,42,5.20
2018,10,18,04,43,5.20
2018,10,18,04,44,5.20
2018,10,18,04,45,5.30
2018,10,18,04,46,5.40
2018,10,18,04,47,5.50
2018,10,18,04,48,5.70
2018,10,18,04,49,5.80
2018,10,18,04,50,6.00
2018,10,18,04,51,6.10
2018,10,18,04,52,6.10
2018,10,18,04,53,6.20
2018,10,18,04,54,6.20
2018,10,18,04,55,6.10
2018,10,18,04,56,6.10
2018,10,18,04,57,6.10
2018,10,18,04,58,6.00
2018,10,18,04,59,6.00
2018,10,18,05,00,6.00
2018,10,18,05,01,5.90
2018,10,18,05,02,5.80
2018,10,18,05,03,5.80
2018,10,18,05,04,5.80
2018,10,18,05,05,5.70
2018,10,18,05,06,5.70
2018,10,18,05,07,5.70
2018,10,18,05,08,5.70
2018,10,18,05,09,5.70
2018,10,18,05,10,5.60
2018,10,18,05,11,5.60
2018,10,18,05,12,5.60
2018,10,18,05,13,5.60
2018,10,18,05,14,5.60
2018,10,18,05,15,5.50
2018,10,18,05,16,5.50
2018,10,18,05,17,5.50
2018,10,18,05,18,5.50
2018,10,18,05,19,5.50
2018,10,18,05,20,5.50
2018,10,18,05,21,5.50
2018,10,18,05,22,5.50
2018,10,18,05,23,5.50
2018,10,18,05,24,5.50
2018,10,18,05,25,5.50
2018,10,18,05,26,5.60
2018,10,18,05,27,5.60
2018,10,18,05,28,5.60
2018,10,18,05,29,5.70
2018,10,18,05,30,5.70
2018,10,18,05,31,5.80
2018,10,18,05,32,5.80
2018,10,18,05,33,5.80
2018,10,18,05,34,5.80
2018,10,18,05,35,5.80
2018,10,18,05,36,5.70
2018,10,18,05,37,5.70
2018,10,18,05,38,5.70
2018,10,18,05,39,5.60
2018,10,18,05,40,5.60
2018,10,18,05,41,5.50
2018,10,18,05,42,5.50
2018,10,18,05,43,5.40
2018,10,18,05,44,5.40
2018,10,18,05,45,5.40
2018,10,18,05,46,5.30
2018,10,18,05,47,5.30
2018,10,18,05,48,5.40
2018,10,18,05,49,5.40
2018,10,18,05,50,5.40
2018,10,18,05,51,5.50
2018,10,18,05,52,5.60
2018,10,18,05,53,5.60
2018,10,18,05,54,5.70
2018,10,18,05,55,5.70
2018,10,18,05,56,5.80
2018,10,18,05,57,5.80
2018,10,18,05,58,5.80
2018,10,18,05,59,5.80
2018,10,18,06,00,5.80
2018,10,18,06,01,5.80
2018,10,18,06,02,5.80
2018,10,18,06,03,5.80
2018,10,18,06,04,5.80
2018,10,18,06,05,5.70
2018,10,18,06,06,5.70
2018,10,18,06,07,5.60
2018,10,18,06,08,5.60
2018,10,18,06,09,5.50
2018,10,18,06,10,5.50
2018,10,18,06,11,5.40
2018,10,18,06,12,5.30
2018,10,18,06,13,5.30
2018,10,18,06,14,5.30
2018,10,18,06,15,5.20
2018,10,18,06,16,5.20
2018,10,18,06,17,5.20
2018,10,18,06,18,5.10
2018,10,18,06,19,5.10
2018,10,18,06,20,5.10
2018,10,18,06,21,5.10
2018,10,18,06,22,5.10
2018,10,18,06,23,5.10
2018,10,18,06,24,5.00
2018,10,18,06,25,5.10
2018,10,18,06,26,5.10
2018,10,18,06,27,5.10
2018,10,18,06,28,5.20
2018,10,18,06,29,5.20
2018,10,18,06,30,5.20
2018,10,18,06,31,5.20
2018,10,18,06,32,5.10
2018,10,18,06,33,5.10
2018,10,18,06,34,5.00
2018,10,18,06,35,4.90
2018,10,18,06,36,4.90
2018,10,18,06,37,4.80
2018,10,18,06,38,4.80
2018,10,18,06,39,4.80
2018,10,18,06,40,4.70
2018,10,18,06,41,4.70
2018,10,18,06,42,4.70
2018,10,18,06,43,4.80
2018,10,18,06,44,4.80
2018,10,18,06,45,4.90
2018,10,18,06,46,5.00
2018,10,18,06,47,5.00
2018,10,18,06,48,5.00
2018,10,18,06,49,5.00
2018,10,18,06,50,4.90
2018,10,18,06,51,4.90
2018,10,18,06,52,4.90
2018,10,18,06,53,4.80
2018,10,18,06,54,4.70
2018,10,18,06,55,4.70
2018,10,18,06,56,4.60
2018,10,18,06,57,4.60
2018,10,18,06,58,4.60
2018,10,18,06,59,4.50
2018,10,18,07,00,4.50
2018,10,18,07,01,4.50
2018,10,18,07,02,4.60
2018,10,18,07,03,4.60
2018,10,18,07,04,4.60
2018,10,18,07,05,4.70
2018,10,18,07,06,4.70
2018,10,18,07,07,4.70
2018,10,18,07,08,4.70
2018,10,18,07,09,4.80
2018,10,18,07,10,4.80
2018,10,18,07,11,4.80
2018,10,18,07,12,4.80
2018,10,18,07,13,4.80
2018,10,18,07,14,4.80
2018,10,18,07,15,4.80
2018,10,18,07,16,4.80
2018,10,18,07,17,4.80
2018,10,18,07,18,4.80
2018,10,18,07,19,4.80
2018,10,18,07,20,4.70
2018,10,18,07,21,4.70
2018,10,18,07,22,4.70
2018,10,18,07,23,4.60
2018,10,18,07,24,4.60
2018,10,18,07,25,4.50
2018,10,18,07,26,4.50
2018,10,18,07,27,4.40
2018,10,18,07,28,4.40
2018,10,18,07,29,4.40
2018,10,18,07,30,4.40
2018,10,18,07,31,4.50
2018,10,18,07,32,4.60
2018,10,18,07,33,4.70
2018,10,18,07,34,4.80
2018,10,18,07,35,4.90
2018,10,18,07,36,4.90
2018,10,18,07,37,4.90
2018,10,18,07,38,4.90
2018,10,18,07,39,4.90
2018,10,18,07,40,4.80
2018,10,18,07,41,4.80
2018,10,18,07,42,4.70
2018,10,18,07,43,4.60
2018,10,18,07,44,4.60
2018,10,18,07,45,4.50
2018,10,18,07,46,4.50
2018,10,18,07,47,4.40
2018,10,18,07,48,4.30
2018,10,18,07,49,4.30
2018,10,18,07,50,4.30
2018,10,18,07,51,4.20
2018,10,18,07,52,4.20
2018,10,18,07,53,4.20
2018,10,18,07,54,4.20
2018,10,18,07,55,4.10
2018,10,18,07,56,4.10
2018,10,18,07,57,4.10
2018,10,18,07,58,4.10
2018,10,18,07,59,4.10
2018,10,18,08,00,4.10
2018,10,18,08,01,4.20
2018,10,18,08,02,4.20
2018,10,18,08,03,4.20
2018,10,18,08,04,4.20
2018,10,18,08,05,4.20
2018,10,18,08,06,4.20
2018,10,18,08,07,4.20
2018,10,18,08,08,4.50
2018,10,18,08,09,4.70
2018,10,18,08,10,4.70
2018,10,18,08,11,4.80
2018,10,18,08,12,4.80
2018,10,18,08,13,4.80
2018,10,18,08,14,4.80
2018,10,18,08,15,4.80
2018,10,18,08,16,4.80
2018,10,18,08,17,4.80
2018,10,18,08,18,4.80
2018,10,18,08,19,4.80
2018,10,18,08,20,4.80
2018,10,18,08,21,4.80
2018,10,18,08,22,4.80
2018,10,18,08,23,4.70
2018,10,18,08,24,4.70
2018,10,18,08,25,4.70
2018,10,18,08,26,4.70
2018,10,18,08,27,4.70
2018,10,18,08,28,4.70
2018,10,18,08,29,4.70
2018,10,18,08,30,4.70
2018,10,18,08,31,4.70
2018,10,18,08,32,4.80
2018,10,18,08,33,4.80
2018,10,18,08,34,4.80
2018,10,18,08,35,4.80
2018,10,18,08,36,4.80
2018,10,18,08,37,4.80
2018,10,18,08,38,4.90
2018,10,18,08,39,4.90
2018,10,18,08,40,4.90
2018,10,18,08,41,4.90
2018,10,18,08,42,4.90
2018,10,18,08,43,5.00
2018,10,18,08,44,5.00
2018,10,18,08,45,5.10
2018,10,18,08,46,5.10
2018,10,18,08,47,5.20
2018,10,18,08,48,5.20
2018,10,18,08,49,5.20
2018,10,18,08,50,5.30
2018,10,18,08,51,5.30
2018,10,18,08,52,5.30
2018,10,18,08,53,5.40
2018,10,18,08,54,5.40
2018,10,18,08,55,5.50
2018,10,18,08,56,5.60
2018,10,18,08,57,5.60
2018,10,18,08,58,5.70
2018,10,18,08,59,5.80
2018,10,18,09,00,5.80
2018,10,18,09,01,5.90
2018,10,18,09,02,6.00
2018,10,18,09,03,6.10
2018,10,18,09,04,6.20
2018,10,18,09,05,6.40
2018,10,18,09,06,6.50
2018,10,18,09,07,6.70
2018,10,18,09,08,6.80
2018,10,18,09,09,6.90
2018,10,18,09,10,7.00
2018,10,18,09,11,7.10
2018,10,18,09,12,7.20
2018,10,18,09,13,7.20
2018,10,18,09,14,7.30
2018,10,18,09,15,7.30
2018,10,18,09,16,7.40
2018,10,18,09,17,7.40
2018,10,18,09,18,7.50
2018,10,18,09,19,7.50
2018,10,18,09,20,7.50
2018,10,18,09,21,7.40
2018,10,18,09,22,7.30
2018,10,18,09,23,7.30
2018,10,18,09,24,7.30
2018,10,18,09,25,7.40
2018,10,18,09,26,7.40
2018,10,18,09,27,7.40
2018,10,18,09,28,7.40
2018,10,18,09,29,7.50
2018,10,18,09,30,7.50
2018,10,18,09,31,7.60
2018,10,18,09,32,7.60
2018,10,18,09,33,7.60
2018,10,18,09,34,7.60
2018,10,18,09,35,7.70
2018,10,18,09,36,7.70
2018,10,18,09,37,7.80
2018,10,18,09,38,7.90
2018,10,18,09,39,8.00
2018,10,18,09,40,8.10
2018,10,18,09,41,8.20
2018,10,18,09,42,8.30
2018,10,18,09,43,8.40
2018,10,18,09,44,8.60
2018,10,18,09,45,8.80
2018,10,18,09,46,8.80
2018,10,18,09,47,8.90
2018,10,18,09,48,8.90
2018,10,18,09,49,8.90
2018,10,18,09,50,8.90
2018,10,18,09,51,9.00
2018,10,18,09,52,9.00
2018,10,18,09,53,9.00
2018,10,18,09,54,9.00
2018,10,18,09,55,9.10
2018,10,18,09,56,9.10
2018,10,18,09,57,9.10
2018,10,18,09,58,9.10
2018,10,18,09,59,9.20
2018,10,18,10,00,9.30
2018,10,18,10,01,9.30
2018,10,18,10,02,9.50
2018,10,18,10,03,9.60
2018,10,18,10,04,9.80
2018,10,18,10,05,9.90
2018,10,18,10,06,10.10
2018,10,18,10,07,10.20
2018,10,18,10,08,10.30
2018,10,18,10,09,10.30
2018,10,18,10,10,10.20
2018,10,18,10,11,10.20
2018,10,18,10,12,10.30
2018,10,18,10,13,10.30
2018,10,18,10,14,10.30
2018,10,18,10,15,10.30
2018,10,18,10,16,10.30
2018,10,18,10,17,10.40
2018,10,18,10,18,10.40
2018,10,18,10,19,10.50
2018,10,18,10,20,10.60
2018,10,18,10,21,10.60
2018,10,18,10,22,10.70
2018,10,18,10,23,10.70
2018,10,18,10,24,10.80
2018,10,18,10,25,10.80
2018,10,18,10,26,10.80
2018,10,18,10,27,10.90
2018,10,18,10,28,10.90
2018,10,18,10,29,11.00
2018,10,18,10,30,11.00
2018,10,18,10,31,11.10
2018,10,18,10,32,11.10
2018,10,18,10,33,11.20
2018,10,18,10,34,11.20
2018,10,18,10,35,11.30
2018,10,18,10,36,11.40
2018,10,18,10,37,11.40
2018,10,18,10,38,11.50
2018,10,18,10,39,11.50
2018,10,18,10,40,11.60
2018,10,18,10,41,11.70
2018,10,18,10,42,11.70
2018,10,18,10,43,11.80
2018,10,18,10,44,11.80
2018,10,18,10,45,11.80
2018,10,18,10,46,11.90
2018,10,18,10,47,11.90
2018,10,18,10,48,11.90
2018,10,18,10,49,12.00
2018,10,18,10,50,12.10
2018,10,18,10,51,12.10
2018,10,18,10,52,12.10
2018,10,18,10,53,12.20
2018,10,18,10,54,12.30
2018,10,18,10,55,12.30
2018,10,18,10,56,12.30
2018,10,18,10,57,12.40
2018,10,18,10,58,12.40
2018,10,18,10,59,12.40
2018,10,18,11,00,12.50
2018,10,18,11,01,12.50
2018,10,18,11,02,12.50
2018,10,18,11,03,12.60
2018,10,18,11,04,12.60
2018,10,18,11,05,12.60
2018,10,18,11,06,12.70
2018,10,18,11,07,12.70
2018,10,18,11,08,12.70
2018,10,18,11,09,12.80
2018,10,18,11,10,12.80
2018,10,18,11,11,12.80
2018,10,18,11,12,12.80
2018,10,18,11,13,12.90
2018,10,18,11,14,12.90
2018,10,18,11,15,12.90
2018,10,18,11,16,12.90
2018,10,18,11,17,12.90
2018,10,18,11,18,13.00
2018,10,18,11,19,13.00
2018,10,18,11,20,13.00
2018,10,18,11,21,13.10
2018,10,18,11,22,13.10
2018,10,18,11,23,13.10
2018,10,18,11,24,13.20
2018,10,18,11,25,13.20
2018,10,18,11,26,13.20
2018,10,18,11,27,13.20
2018,10,18,11,28,13.20
2018,10,18,11,29,13.20
2018,10,18,11,30,13.20
2018,10,18,11,31,13.20
2018,10,18,11,32,13.20
2018,10,18,11,33,13.30
2018,10,18,11,34,13.40
2018,10,18,11,35,13.40
2018,10,18,11,36,13.40
2018,10,18,11,37,13.40
2018,10,18,11,38,13.50
2018,10,18,11,39,13.50
2018,10,18,11,40,13.50
2018,10,18,11,41,13.60
2018,10,18,11,42,13.60
2018,10,18,11,43,13.50
2018,10,18,11,44,13.50
2018,10,18,11,45,13.50
2018,10,18,11,46,13.40
2018,10,18,11,47,13.40
2018,10,18,11,48,13.40
2018,10,18,11,49,13.40
2018,10,18,11,50,13.40
2018,10,18,11,51,13.40
2018,10,18,11,52,13.40
2018,10,18,11,53,13.40
2018,10,18,11,54,13.40
2018,10,18,11,55,13.40
2018,10,18,11,56,13.40
2018,10,18,11,57,13.30
2018,10,18,11,58,13.30
2018,10,18,11,59,13.30
2018,10,18,12,00,13.20
2018,10,18,12,01,13.20
2018,10,18,12,02,13.20
2018,10,18,12,03,13.20
2018,10,18,12,04,13.20
2018,10,18,12,05,13.20
2018,10,18,12,06,13.20
2018,10,18,12,07,13.20
2018,10,18,12,08,13.20
2018,10,18,12,09,13.20
2018,10,18,12,10,13.30
2018,10,18,12,11,13.30
2018,10,18,12,12,13.30
2018,10,18,12,13,13.30
2018,10,18,12,14,13.30
2018,10,18,12,15,13.30
2018,10,18,12,16,13.30
2018,10,18,12,17,13.30
2018,10,18,12,18,13.30
2018,10,18,12,19,13.30
2018,10,18,12,20,13.30
2018,10,18,12,21,13.30
2018,10,18,12,22,13.30
2018,10,18,12,23,13.30
2018,10,18,12,24,13.30
2018,10,18,12,25,13.40
2018,10,18,12,26,13.40
2018,10,18,12,27,13.50
2018,10,18,12,28,13.50
2018,10,18,12,29,13.60
2018,10,18,12,30,13.60
2018,10,18,12,31,13.60
2018,10,18,12,32,13.60
2018,10,18,12,33,13.60
2018,10,18,12,34,13.60
2018,10,18,12,35,13.60
2018,10,18,12,36,13.60
2018,10,18,12,37,13.70
2018,10,18,12,38,13.70
2018,10,18,12,39,13.70
2018,10,18,12,40,13.70
2018,10,18,12,41,13.70
2018,10,18,12,42,13.70
2018,10,18,12,43,13.70
2018,10,18,12,44,13.70
2018,10,18,12,45,13.80
2018,10,18,12,46,13.80
2018,10,18,12,47,13.80
2018,10,18,12,48,13.90
2018,10,18,12,49,13.90
2018,10,18,12,50,14.00
2018,10,18,12,51,14.10
2018,10,18,12,52,14.10
2018,10,18,12,53,14.10
2018,10,18,12,54,14.10
2018,10,18,12,55,14.20
2018,10,18,12,56,14.20
2018,10,18,12,57,14.20
2018,10,18,12,58,14.30
2018,10,18,12,59,14.30
2018,10,18,13,00,14.40
2018,10,18,13,01,14.50
2018,10,18,13,02,14.50
2018,10,18,13,03,14.60
2018,10,18,13,04,14.50
2018,10,18,13,05,14.50
2018,10,18,13,06,14.40
2018,10,18,13,07,14.40
2018,10,18,13,08,14.40
2018,10,18,13,09,14.40
2018,10,18,13,10,14.40
2018,10,18,13,11,14.40
2018,10,18,13,12,14.40
2018,10,18,13,13,14.40
2018,10,18,13,14,14.40
2018,10,18,13,15,14.40
2018,10,18,13,16,14.50
2018,10,18,13,17,14.50
2018,10,18,13,18,14.40
2018,10,18,13,19,14.40
2018,10,18,13,20,14.40
2018,10,18,13,21,14.40
2018,10,18,13,22,14.30
2018,10,18,13,23,14.30
2018,10,18,13,24,14.30
2018,10,18,13,25,14.30
2018,10,18,13,26,14.30
2018,10,18,13,27,14.30
2018,10,18,13,28,14.30
2018,10,18,13,29,14.40
2018,10,18,13,30,14.40
2018,10,18,13,31,14.40
2018,10,18,13,32,14.40
2018,10,18,13,33,14.40
2018,10,18,13,34,14.30
2018,10,18,13,35,14.30
2018,10,18,13,36,14.30
2018,10,18,13,37,14.40
2018,10,18,13,38,14.40
2018,10,18,13,39,14.50
2018,10,18,13,40,14.50
2018,10,18,13,41,14.50
2018,10,18,13,42,14.60
2018,10,18,13,43,14.50
2018,10,18,13,44,14.50
2018,10,18,13,45,14.50
2018,10,18,13,46,14.50
2018,10,18,13,47,14.50
2018,10,18,13,48,14.50
2018,10,18,13,49,14.50
2018,10,18,13,50,14.40
2018,10,18,13,51,14.40
2018,10,18,13,52,14.30
2018,10,18,13,53,14.30
2018,10,18,13,54,14.30
2018,10,18,13,55,14.20
2018,10,18,13,56,14.20
2018,10,18,13,57,14.20
2018,10,18,13,58,14.20
2018,10,18,13,59,14.10
2018,10,18,14,00,14.10
2018,10,18,14,01,14.10
2018,10,18,14,02,14.00
2018,10,18,14,03,14.00
2018,10,18,14,04,13.90
2018,10,18,14,05,13.90
2018,10,18,14,06,13.90
2018,10,18,14,07,13.90
2018,10,18,14,08,13.90
2018,10,18,14,09,13.90
2018,10,18,14,10,13.90
2018,10,18,14,11,13.90
2018,10,18,14,12,13.90
2018,10,18,14,13,13.90
2018,10,18,14,14,13.90
2018,10,18,14,15,13.90
2018,10,18,14,16,13.90
2018,10,18,14,17,13.90
2018,10,18,14,18,13.90
2018,10,18,14,19,13.90
2018,10,18,14,20,13.90
2018,10,18,14,21,13.90
2018,10,18,14,22,13.90
2018,10,18,14,23,13.90
2018,10,18,14,24,14.00
2018,10,18,14,25,14.00
2018,10,18,14,26,14.00
2018,10,18,14,27,14.10
2018,10,18,14,28,14.10
2018,10,18,14,29,14.10
2018,10,18,14,30,14.00
2018,10,18,14,31,14.10
2018,10,18,14,32,14.00
2018,10,18,14,33,14.00
2018,10,18,14,34,13.90
2018,10,18,14,35,13.90
2018,10,18,14,36,13.90
2018,10,18,14,37,13.90
2018,10,18,14,38,13.90
2018,10,18,14,39,13.90
2018,10,18,14,40,14.00
2018,10,18,14,41,14.00
2018,10,18,14,42,14.00
2018,10,18,14,43,14.00
2018,10,18,14,44,13.90
2018,10,18,14,45,13.90
2018,10,18,14,46,13.80
2018,10,18,14,47,13.80
2018,10,18,14,48,13.80
2018,10,18,14,49,13.80
2018,10,18,14,50,13.80
2018,10,18,14,51,13.80
2018,10,18,14,52,13.80
2018,10,18,14,53,13.90
2018,10,18,14,54,13.90
2018,10,18,14,55,13.90
2018,10,18,14,56,14.00
2018,10,18,14,57,14.00
2018,10,18,14,58,14.00
2018,10,18,14,59,14.10
2018,10,18,15,00,14.10
2018,10,18,15,01,14.10
2018,10,18,15,02,14.10
2018,10,18,15,03,14.10
2018,10,18,15,04,14.00
2018,10,18,15,05,14.00
2018,10,18,15,06,14.00
2018,10,18,15,07,14.00
2018,10,18,15,08,14.00
2018,10,18,15,09,14.00
2018,10,18,15,10,13.90
2018,10,18,15,11,13.90
2018,10,18,15,12,13.90
2018,10,18,15,13,14.00
2018,10,18,15,14,14.00
2018,10,18,15,15,14.10
2018,10,18,15,16,14.10
2018,10,18,15,17,14.10
2018,10,18,15,18,14.20
2018,10,18,15,19,14.20
2018,10,18,15,20,14.20
2018,10,18,15,21,14.30
2018,10,18,15,22,14.30
2018,10,18,15,23,14.30
2018,10,18,15,24,14.30
2018,10,18,15,25,14.30
2018,10,18,15,26,14.40
2018,10,18,15,27,14.40
2018,10,18,15,28,14.50
2018,10,18,15,29,14.50
2018,10,18,15,30,14.50
2018,10,18,15,31,14.50
2018,10,18,15,32,14.60
2018,10,18,15,33,14.60
2018,10,18,15,34,14.60
2018,10,18,15,35,14.60
2018,10,18,15,36,14.60
2018,10,18,15,37,14.70
2018,10,18,15,38,14.70
2018,10,18,15,39,14.80
2018,10,18,15,40,14.80
2018,10,18,15,41,14.90
2018,10,18,15,42,15.00
2018,10,18,15,43,15.00
2018,10,18,15,44,15.00
2018,10,18,15,45,15.00
2018,10,18,15,46,15.00
2018,10,18,15,47,15.00
2018,10,18,15,48,15.00
2018,10,18,15,49,15.00
2018,10,18,15,50,14.90
2018,10,18,15,51,14.90
2018,10,18,15,52,14.80
2018,10,18,15,53,14.80
2018,10,18,15,54,14.80
2018,10,18,15,55,14.80
2018,10,18,15,56,14.90
2018,10,18,15,57,14.90
2018,10,18,15,58,15.00
2018,10,18,15,59,15.00
2018,10,18,16,00,15.00
2018,10,18,16,01,15.00
2018,10,18,16,02,15.00
2018,10,18,16,03,15.00
2018,10,18,16,04,15.00
2018,10,18,16,05,15.00
2018,10,18,16,06,15.00
2018,10,18,16,07,15.00
2018,10,18,16,08,15.00
2018,10,18,16,09,15.00
2018,10,18,16,10,15.00
2018,10,18,16,11,15.00
2018,10,18,16,12,15.00
2018,10,18,16,13,15.00
2018,10,18,16,14,15.00
2018,10,18,16,15,14.90
2018,10,18,16,16,14.80
2018,10,18,16,17,14.80
2018,10,18,16,18,14.80
2018,10,18,16,19,14.80
2018,10,18,16,20,14.80
2018,10,18,16,21,14.80
2018,10,18,16,22,14.80
2018,10,18,16,23,14.80
2018,10,18,16,24,14.70
2018,10,18,16,25,14.70
2018,10,18,16,26,14.70
2018,10,18,16,27,14.70
2018,10,18,16,28,14.70
2018,10,18,16,29,14.70
2018,10,18,16,30,14.70
2018,10,18,16,31,14.70
2018,10,18,16,32,14.80
2018,10,18,16,33,14.80
2018,10,18,16,34,14.80
2018,10,18,16,35,14.90
2018,10,18,16,36,14.90
2018,10,18,16,37,15.00
2018,10,18,16,38,15.00
2018,10,18,16,39,15.00
2018,10,18,16,40,15.00
2018,10,18,16,41,15.00
2018,10,18,16,42,15.00
2018,10,18,16,43,15.00
2018,10,18,16,44,15.00
2018,10,18,16,45,15.00
2018,10,18,16,46,15.00
2018,10,18,16,47,15.00
2018,10,18,16,48,15.00
2018,10,18,16,49,15.00
2018,10,18,16,50,15.00
2018,10,18,16,51,15.00
2018,10,18,16,52,15.00
2018,10,18,16,53,15.00
2018,10,18,16,54,15.00
2018,10,18,16,55,15.00
2018,10,18,16,56,15.00
2018,10,18,16,57,15.00
2018,10,18,16,58,15.00
2018,10,18,16,59,15.00
2018,10,18,17,00,14.90
2018,10,18,17,01,14.90
2018,10,18,17,02,14.80
2018,10,18,17,03,14.80
2018,10,18,17,04,14.70
2018,10,18,17,05,14.70
2018,10,18,17,06,14.70
2018,10,18,17,07,14.70
2018,10,18,17,08,14.60
2018,10,18,17,09,14.60
2018,10,18,17,10,14.60
2018,10,18,17,11,14.50
2018,10,18,17,12,14.50
2018,10,18,17,13,14.50
2018,10,18,17,14,14.40
2018,10,18,17,15,14.40
2018,10,18,17,16,14.40
2018,10,18,17,17,14.40
2018,10,18,17,18,14.30
2018,10,18,17,19,14.30
2018,10,18,17,20,14.40
2018,10,18,17,21,14.40
2018,10,18,17,22,14.40
2018,10,18,17,23,14.40
2018,10,18,17,24,14.40
2018,10,18,17,25,14.40
2018,10,18,17,26,14.40
2018,10,18,17,27,14.40
2018,10,18,17,28,14.40
2018,10,18,17,29,14.40
2018,10,18,17,30,14.40
2018,10,18,17,31,14.40
2018,10,18,17,32,14.40
2018,10,18,17,33,14.40
2018,10,18,17,34,14.30
2018,10,18,17,35,14.30
2018,10,18,17,36,14.30
2018,10,18,17,37,14.20
2018,10,18,17,38,14.20
2018,10,18,17,39,14.20
2018,10,18,17,40,14.20
2018,10,18,17,41,14.20
2018,10,18,17,42,14.10
2018,10,18,17,43,14.10
2018,10,18,17,44,14.10
2018,10,18,17,45,14.00